www.pogodaiklimat.ru

Погода и климат >> Архив погоды >> Словакия >> Слиач


ПОГОДА в Слиаче

  • Прогноз погоды в Слиаче
  • Монитор погоды в Слиаче

АРХИВ ПОГОДЫ в Слиаче

Время (UTC), дата Ветер
(напр.,м/с)
 
Видим.   Явления Облачность Т
(С)
Тd
(С)
f
(%)
Тe
(С)
Тes
(С)
Комфортность P
(гПа)
Po
(гПа)
Тmin
(С)
Tmax
(С)
R
(мм)
R24
(мм)
S
(см)
10 11.07 СЗ 4 40 км в посл. час ливневой дождь 6/6 1500 м
[Cu med, cong Ac lent]
+20.1 +6.8 42 +21 +26 комфорт 1011.6 975.4
11 11.07 СЗ 6 20 км осадки на расстоянии 8/6 1500 м
[Cb cap Ac cuf Ci ing]
+22.6 +5.6 33 +23 +25 комфорт 1011.0 975.1
12 11.07 В 2 30 км {ливн. осадки} 8/6 1500 м
[Cu med, cong Ac cuf Ci ing]
+18.8 +8.5 51 +20 +25 1011.4 975.1 0.2
13 11.07 С 5 20 км осадки на расстоянии 8/6 1350 м
[Cb cap Ac cuf Ci ing]
+17.7 +7.7 52 +17 +19 1012.2 975.7
14 11.07 СВ 3 20 км в посл. час ливневой дождь 6/4 1200 м
[Cb cap Ac cuf Ci ing]
+15.6 +11.0 74 +15 +19 1012.5 975.8
15 11.07 СВ 2 30 км {ливн. осадки} 6/1 1500 м
[Cu med, cong Ac cuf]
+19.4 +11.2 59 +21 +25 комфорт 1011.6 975.4
16 11.07 30 км 4/1 2000 м
[Cu med, cong Ac cuf]
+20.0 +9.0 49 1011.2 975.1
17 11.07 40 км 3/1 2000 м
[Cu hum Ac lent]
+20.0 +9.0 49 1011.0 974.9
18 11.07 нст 2 40 км {ливн. осадки} 1/1 2000 м
[Sc diur, vesp]
+18.7 +9.8 56 +20 +20 1011.5 975.2 +22.8 0.8
19 11.07 40 км 1/0
[Ci fib]
+14.6 +10.0 74 1012.6 975.8
20 11.07 СВ 1 40 км 1/0
[Ci fib]
+13.3 +9.9 80 +13 +13 1013.4 976.4
21 11.07 нст 1 40 км 1/0
[Ci fib]
+11.5 +8.7 83 +11 +11 1014.0 976.7
22 11.07 штиль 0 40 км ясно +11.9 +8.9 82 +11 +11 1014.4 977.1
23 11.07 штиль 0 40 км ясно +10.2 +8.1 87 +9 +9 1014.7 977.2
00 12.07 нст 1 30 км ясно +9.2 +7.3 88 +9 +9 1014.8 977.1
01 12.07 С 1 30 км ясно +8.3 +7.1 92 +7 +7 1014.7 976.9
02 12.07 штиль 0 30 км 1/0
[Ci fib]
+8.0 +6.6 91 +7 +7 1014.7 976.9
03 12.07 штиль 0 30 км 1/0
[Ac trans]
+7.5 +6.3 92 +7 +7 1015.1 977.2
04 12.07 штиль 0 30 км 3/0
[Ac trans]
+8.2 +6.7 90 +7 +8 1015.1 977.3
05 12.07 30 км 4/0
[Ac trans]
+11.1 +8.3 83 1014.6 977.2
06 12.07 нст 1 30 км 4/0
[Ac trans]
+13.2 +7.9 70 +13 +18 1014.3 977.2 +7.5
07 12.07 35 км 4/0
[Ac trans]
+15.0 +9.2 68 1014.1 977.2
08 12.07 35 км 5/3 1000 м
[Cu hum Ac trans Cs]
+18.0 +9.6 58 1013.2 976.7
09 12.07 нст 1 35 км 8/5 1500 м
[Cu hum Ac As Ci fib]
+19.6 +9.5 52 +22 +28 комфорт 1012.5 976.3
10 12.07 35 км 10/0
[Ac As]
+21.0 +9.0 46 1011.8 975.8
11 12.07 Ю 3 35 км 10/0
[Ac As]
+21.4 +8.7 44 +23 +27 комфорт 1011.5 975.5
12 12.07 Ю 5 35 км 10/0
[Ac As]
+20.2 +8.2 46 +21 +24 комфорт 1011.5 975.4
13 12.07 Ю 4 35 км 10/1 1500 м
[Cu hum Ac As]
+19.7 +8.7 49 +21 +23 комфорт 1011.6 975.4
14 12.07 Ю 3 35 км 10/1 1500 м
[Cu hum Ac As]
+19.9 +9.5 51 +21 +24 комфорт 1011.4 975.2
15 12.07 З 3 35 км в посл. час дождь 10/1 1500 м
[Cu hum Ac As]
+19.7 +10.2 54 +21 +23 комфорт 1011.1 974.9
16 12.07 ЮЗ 3 30 км слаб. дождь 10/1 1500 м
[Cu hum Ac As]
+18.8 +11.9 64 +20 +21 1011.2 974.9
17 12.07 30 км в посл. час дождь 9/1 1500 м
[Cu hum Ac As]
+17.7 +12.4 71 1011.1 974.7
18 12.07 ЮВ 1 30 км слаб. дождь 9/1 1380 м
[Sc Ac As]
+17.4 +12.1 71 +18 +19 1011.0 974.6 +21.8
19 12.07 Ю 1 20 км в посл. час дождь 9/0
[Ac As]
+16.8 +12.2 74 +18 +18 1011.3 974.8
20 12.07 ЮЗ 1 20 км 9/0
[Ac As]
+16.6 +12.6 77 +17 +17 1011.4 974.9
21 12.07 Ю 2 20 км {дождь} 9/0 2000 м
[Ac As]
+15.8 +12.6 81 +16 +16 1011.4 974.8
22 12.07 20 км 8/0
[Ac As]
+14.8 +12.3 85 1011.8 975.0
23 12.07 штиль 0 20 км 8/1 1500 м
[Sc Ac As]
+14.3 +11.8 85 +14 +14 1011.7 974.9
00 13.07 штиль 0 20 км {дождь} 8/4 1080 м
[Sc Ac As]
+13.8 +11.7 87 +13 +13 1011.5 974.6 0.0
01 13.07 штиль 0 20 км 9/0
[Ac As]
+13.4 +11.6 89 +13 +13 1011.2 974.3
02 13.07 20 км 4/0
[Ac lent]
+11.9 +10.6 92 1011.1 974.0
03 13.07 штиль 0 3000 м туман на расстоянии 5/4 60 м
[Sc Ac lent]
+11.5 +10.6 94 +11 +11 1011.1 973.9
04 13.07 штиль 0 8000 м дымка 8/8 60 м
[Sc]
+11.9 +11.0 94 +11 +11 1010.9 973.8
05 13.07 10 км 9/9 120 м
[Sc]
+12.8 +11.5 92 1011.0 974.0
06 13.07 штиль 0 12 км {туман} 9/1 1500 м
[Sc Ac As]
+15.0 +12.3 84 +15 +17 1010.6 973.9 +11.2 0.0
07 13.07 20 км 9/3 1200 м
[Cu med, cong Ac As]
+16.4 +12.4 77 1010.1 973.6
08 13.07 25 км 9/3 1200 м
[Cu med, cong Ac trans Cs]
+18.5 +12.5 68 1009.4 973.2
09 13.07 нст 2 25 км 9/3 1260 м
[Cu med, cong Ac trans]
+20.8 +12.3 58 +24 +29 комфорт 1008.9 973.0
10 13.07 ЮЗ 3 20 км в посл. час ливневой дождь 9/6 1140 м
[Cb cap Ac trans]
+21.2 +12.4 57 +23 +27 комфорт 1008.3 972.4
11 13.07 ЮЗ 3 20 км слаб. ливневой дождь 9/6 1200 м
[Cb cap Ac trans]
+20.4 +15.2 72 +23 +27 комфорт 1008.1 972.2
12 13.07 Ю 4 25 км в посл. час гроза {ливн. осадки} 6/5 1200 м
[Cb cap Ac trans Ci sp]
+20.2 +14.8 71 +23 +28 комфорт 1008.2 972.3 5
13 13.07 ЮВ 4 20 км осадки на расстоянии 9/3 1200 м
[Cb cap Ac As]
+18.8 +14.5 76 +20 +22 1008.6 972.5
14 13.07 СВ 2 20 км слаб. ливневой дождь, в посл. час гроза 10/10 1080 м
[Cb cap]
+15.5 +14.2 92 +15 +15 1009.6 973.0
15 13.07 С 3 20 км слаб. дождь {гроза} 9/9 1350 м
[Cu Sc]
+15.4 +14.1 92 +15 +15 1010.0 973.4
16 13.07 штиль 0 20 км слаб. дождь 9/4 1500 м
[Sc Ac As]
+15.9 +14.3 90 +16 +17 1009.7 973.2
17 13.07 20 км слаб. ливневой дождь 9/3 1500 м
[Cb cap Ac As]
+15.9 +14.4 91 1009.6 973.1
18 13.07 нст 1 20 км в посл. час ливневой дождь {гроза} 9/1 1350 м
[Sc Ac As]
+15.8 +14.2 90 +16 +16 1009.5 973.0 +22.1 10
19 13.07 штиль 0 20 км 6/1 180 м
[Sc Ac As Ci fib]
+14.8 +13.8 94 +14 +14 1010.0 973.3
20 13.07 штиль 0 20 км 6/1 210 м
[Sc Ac As Ci fib]
+13.9 +13.1 95 +13 +13 1010.2 973.4
21 13.07 СЗ 1 7000 м дымка 6/1 180 м
[St Ac As Ci fib]
+13.5 +12.9 96 +14 +14 1010.4 973.5
22 13.07 СЗ 2 100 м туман 10/10 30 м
[St]
+13.4 +12.9 97 +13 +13 1010.5 973.6
23 13.07 штиль 0 300 м туман 10/10 60 м
[St]
+13.2 +12.9 98 +13 +13 1010.6 973.7
00 14.07 штиль 0 4000 м дымка 9/9 60 м
[St]
+12.7 +12.4 98 +12 +12 1010.8 973.8
01 14.07 штиль 0 12 км 9/9 180 м
[St]
+12.7 +12.4 98 +12 +12 1010.7 973.7
02 14.07 штиль 0 6000 м дымка 9/9 120 м
[St Ac As]
+12.7 +12.4 98 +12 +12 1010.5 973.5
03 14.07 штиль 0 2600 м дымка 10/10 120 м
[St]
+12.8 +12.5 98 +12 +12 1010.5 973.5
04 14.07 4000 м дымка 10/10 90 м
[St]
+12.9 +12.6 98 1010.7 973.7
05 14.07 2800 м дымка 10/10 90 м
[St]
+13.0 +12.5 97 1010.6 973.7
06 14.07 нст 1 4000 м дымка 9/9 150 м
[St]
+13.8 +13.0 95 +14 +15 1011.0 974.1 +12.4
07 14.07 15 км 8/1 1140 м
[Cu med, cong Ac trans]
+15.5 +13.0 85 1011.0 974.4
08 14.07 20 км 8/3 1200 м
[Cu med, cong Ac trans]
+19.7 +13.4 67 1010.6 974.5
09 14.07 С 5 25 км 9/3 1230 м
[Cu med, cong Ac As]
+19.4 +11.5 60 +20 +23 1010.9 974.7
10 14.07 С 6 30 км в посл. час ливневой дождь 8/3 1300 м
[Cu med, cong Ac trans]
+19.8 +11.1 57 +21 +24 комфорт 1010.7 974.6
11 14.07 С 4 30 км 4/3 1350 м
[Cu med, cong Ac cuf Ci fib]
+21.7 +10.6 49 +23 +31 комфорт 1010.1 974.2
12 14.07 С 5 30 км {ливн. осадки} 8/8 1410 м
[Cu med, cong]
+24.3 +9.9 40 +25 +27 комфорт 1009.3 973.7 0.0
13 14.07 С 5 30 км 8/3 1380 м
[Cu med, cong Ac cuf Ci sp]
+22.1 +10.0 46 +24 +27 комфорт 1009.8 974.0
14 14.07 С 5 30 км 5/3 1440 м
[Cu med, cong Ci sp]
+22.2 +8.4 41 +23 +27 комфорт 1009.7 973.9
15 14.07 С 7 30 км 9/1 1500 м
[Cu med, cong Cs]
+21.7 +9.9 47 +23 +25 комфорт 1009.9 974.0
16 14.07 С 5 30 км 9/1 1500 м
[Sc diur, vesp Cs]
+20.0 +9.3 50 +21 +22 комфорт 1010.4 974.3
17 14.07 С 5 30 км 9/1 1500 м
[Sc diur, vesp Cs]
+19.3 +9.2 52 +20 +20 1010.9 974.7
18 14.07 СЗ 3 30 км 9/1 2000 м
[Sc Ac lent Cs]
+18.6 +9.4 55 +19 +19 1011.1 974.8 +24.3
19 14.07 С 2 30 км 8/0
[Ac lent Cs]
+17.3 +9.0 58 +18 +18 1011.7 975.2
20 14.07 штиль 0 30 км 6/0
[Ac lent Ci sp]
+15.9 +9.3 65 +16 +16 1012.2 975.5
21 14.07 С 2 30 км 4/0
[Ac lent Ci fib]
+14.9 +9.1 68 +15 +15 1012.6 975.8
22 14.07 штиль 0 30 км 1/0
[Ac lent]
+13.3 +9.2 76 +13 +13 1013.2 976.2
23 14.07 В 1 30 км 4/0
[Ac lent]
+11.8 +9.5 86 +12 +12 1013.6 976.4
00 15.07 штиль 0 30 км 4/0
[Ac lent]
+11.4 +8.8 84 +11 +11 1013.7 976.4
01 15.07 СЗ 1 30 км 1/0
[Ac lent]
+10.6 +8.9 89 +10 +10 1013.6 976.2
02 15.07 штиль 0 30 км 1/0
[Ac lent Ci fib]
+9.3 +7.7 90 +8 +8 1013.8 976.2
03 15.07 штиль 0 30 км 1/1 1200 м
[Sc Ci fib]
+9.1 +8.0 93 +8 +8 1014.0 976.4
04 15.07 штиль 0 50 км 1/0
[Ci fib]
+8.9 +7.7 92 +8 +9 1014.2 976.5
05 15.07 50 км ясно +10.7 +9.0 89 1013.8 976.4
06 15.07 штиль 0 50 км 1/1 1200 м
[Cu hum]
+14.3 +9.7 74 +14 +20 1013.4 976.5 +8.6
07 15.07 50 км 1/1 900 м
[Cu hum]
+17.2 +10.4 64 1013.0 976.5
08 15.07 С 6 50 км 3/3 1080 м
[Cu hum]
+21.0 +6.6 39 +22 +25 комфорт 1012.5 976.4
09 15.07 С 5 50 км 4/4 1380 м
[Cu hum]
+22.1 +6.0 35 +23 +27 комфорт 1012.4 976.4
10 15.07 С 4 50 км 4/4 1500 м
[Cu hum]
+23.0 +5.5 32 +23 +30 комфорт 1012.0 976.1
11 15.07 С 4 50 км 4/4 1500 м
[Cu hum]
+23.7 +5.1 30 +24 +31 комфорт 1011.8 976.0
12 15.07 нст 2 50 км 5/5 1500 м
[Cu med, cong]
+24.2 +2.4 24 +23 +31 комфорт 1011.5 975.8
13 15.07 СЗ 3 50 км 4/4 1500 м
[Cu med, cong]
+24.3 +2.5 24 +23 +30 комфорт 1011.3 975.6
14 15.07 СЗ 4 50 км 3/3 2000 м
[Cu med, cong]
+24.4 +2.6 24 +24 +28 комфорт 1011.2 975.5
15 15.07 СЗ 5 50 км 1/1 2000 м
[Cu med, cong]
+25.0 +3.1 24 +24 +27 комфорт 1010.9 975.3
16 15.07 СВ 4 50 км 1/1 2000 м
[Sc diur, vesp]
+23.4 +3.4 27 +23 +25 комфорт 1011.2 975.4
17 15.07 С 3 50 км 1/1 2000 м
[Sc diur, vesp Ci fib]
+22.8 +3.9 29 +23 +24 комфорт 1011.4 975.5
18 15.07 С 3 40 км 1/1 2000 м
[Sc diur, vesp]
+20.9 +5.3 36 +22 +22 комфорт 1011.9 975.8 +25.5
19 15.07 С 1 40 км 1/1 2000 м
[Sc diur, vesp Ac trans Ci fib]
+17.6 +6.2 47 +19 +19 1012.6 976.1
20 15.07 40 км 4/1 2000 м
[Sc diur, vesp Ac lent]
+14.7 +8.0 64 1013.5 976.6
21 15.07 нст 1 30 км 3/0
[Ci fib]
+13.8 +7.1 64 +14 +14 1014.1 977.1
22 15.07 штиль 0 30 км 1/0
[Ac lent Ci fib]
+12.1 +7.2 72 +12 +12 1014.7 977.4
23 15.07 СВ 1 30 км 3/0
[Ci fib]
+10.5 +6.8 78 +10 +10 1015.3 977.8
00 16.07 штиль 0 30 км 1/0
[Ac lent Ci fib]
+9.7 +6.2 79 +9 +9 1015.5 977.9
01 16.07 штиль 0 30 км 1/0
[Ci fib]
+8.7 +6.8 88 +8 +8 1015.6 977.9
02 16.07 штиль 0 30 км 1/0
[Ac lent Ci fib]
+8.3 +5.9 85 +7 +7 1015.8 978.0
03 16.07 штиль 0 30 км 1/0
[Ac lent Ci fib]
+7.7 +5.8 88 +7 +7 1016.1 978.2
04 16.07 штиль 0 30 км 1/0
[Ac lent Ci fib]
+7.8 +5.9 88 +7 +8 1015.8 977.9
05 16.07 штиль 0 30 км 1/0
[Ac lent]
+9.8 +6.7 81 +9 +12 1015.7 978.1
06 16.07 штиль 0 30 км 4/1 1500 м
[Cu hum Ci fib]
+12.2 +7.3 72 +12 +17 1015.2 977.9 +7.4
07 16.07 30 км 3/1 1500 м
[Cu hum Ci fib]
+15.4 +8.6 64 1014.2 977.4
08 16.07 30 км 5/4 1500 м
[Cu hum Ci fib]
+18.9 +7.0 46 1013.4 977.0
09 16.07 нст 1 35 км 8/6 1500 м
[Cu med, cong Ci fib]
+22.7 +8.8 41 +24 +30 комфорт 1012.3 976.4
10 16.07 З 4 35 км 8/8 1500 м
[Cu med, cong Ci fib]
+23.4 +8.7 39 +25 +27 комфорт 1011.7 975.9
11 16.07 З 5 40 км 8/4 1500 м
[Cu med, cong Ac lent Ci fib]
+24.3 +8.7 37 +25 +29 комфорт 1011.1 975.5
12 16.07 З 6 40 км 8/4 1500 м
[Cu med, cong Ac cuf Ci fib]
+23.9 +8.8 38 +25 +27 комфорт 1011.0 975.3
13 16.07 З 6 40 км 8/5 1500 м
[Cu med, cong Ac cuf Ci fib]
+25.2 +9.1 36 +26 +28 жарко 1010.4 974.9
14 16.07 З 4 40 км 8/4 1500 м
[Cu med, cong Ac cuf Ci fib]
+23.9 +9.9 41 +25 +28 комфорт 1010.4 974.8
15 16.07 З 5 40 км 5/4 1500 м
[Cu med, cong Ac cuf Ci fib]
+25.3 +9.2 36 +26 +28 жарко 1009.8 974.3
16 16.07 З 4 40 км 4/3 1500 м
[Cu med, cong Ac lent Ci fib]
+25.4 +9.3 36 +26 +27 жарко 1009.6 974.1
17 16.07 СЗ 4 40 км 1/1 1500 м
[Sc diur, vesp Ac lent]
+24.3 +6.6 32 +24 +25 комфорт 1009.8 974.2
18 16.07 СЗ 5 40 км 1/1 2000 м
[Sc diur, vesp]
+22.3 +8.4 41 +24 +24 комфорт 1010.2 974.4 +25.9
19 16.07 СЗ 3 30 км 1/1 2000 м
[Sc]
+18.2 +9.6 57 +19 +19 1011.0 974.6
20 16.07 З 3 25 км 1/1 2000 м
[Sc]
+17.5 +9.2 58 +18 +18 1011.7 975.2
21 16.07 СЗ 4 25 км 1/1 2000 м
[Sc]
+17.3 +9.0 58 +17 +17 1011.9 975.4
22 16.07 20 км 1/1 1500 м
[Sc]
+16.3 +8.8 61 1012.3 975.7
23 16.07 С 2 20 км 1/1 2000 м
[Sc]
+15.7 +8.7 63 +16 +16 1012.9 976.2
00 17.07 штиль 0 20 км 1/0
[Ac lent]
+12.6 +8.5 76 +12 +12 1013.2 976.1
01 17.07 штиль 0 20 км 1/0
[Ac lent]
+11.7 +8.0 78 +11 +11 1013.4 976.1
02 17.07 З 1 25 км 1/0
[Ac lent]
+10.2 +7.1 81 +10 +10 1013.5 976.0
03 17.07 нст 1 25 км 1/1 2000 м
[Sc]
+9.6 +6.5 81 +9 +9 1013.6 976.0
04 17.07 30 км 1/1 1380 м
[Sc]
+9.5 +7.8 89 1013.6 976.0
05 17.07 30 км 1/1 900 м
[Cu hum Ci fib]
+11.9 +8.8 81 1013.3 976.1
06 17.07 штиль 0 50 км 1/1 1000 м
[Cu hum Ci sp]
+15.4 +9.1 66 +15 +21 1012.9 976.1 +8.8
07 17.07 50 км 3/1 1080 м
[Cu hum Ci sp]
+19.0 +7.8 48 1012.1 975.8
08 17.07 50 км 5/3 1500 м
[Cu hum Cc]
+19.9 +7.3 44 1011.9 975.7
09 17.07 С 4 50 км 5/3 1500 м
[Cu hum Cc]
+21.6 +6.3 37 +22 +29 комфорт 1011.5 975.5
10 17.07 С 5 50 км 6/3 1500 м
[Cu hum Cc]
+22.6 +7.2 37 +23 +29 комфорт 1011.4 975.5
11 17.07 С 4 50 км 6/5 1500 м
[Cu hum Ci fib]
+23.8 +7.0 34 +24 +30 комфорт 1011.0 975.3
12 17.07 С 5 50 км 5/3 2000 м
[Cu hum Ci fib]
+24.2 +6.5 32 +24 +30 комфорт 1010.9 975.2
13 17.07 СЗ 5 50 км 5/3 2000 м
[Cu hum Ci sp]
+24.9 +7.6 33 +25 +30 комфорт 1010.6 975.0
14 17.07 СЗ 4 50 км 4/3 2000 м
[Cu hum Ci sp]
+24.9 +7.1 32 +25 +30 комфорт 1010.4 974.8
15 17.07 нст 2 50 км 4/3 2000 м
[Cu hum Ci sp]
+25.6 +6.3 29 +25 +30 комфорт 1010.2 974.7
16 17.07 С 4 50 км 3/1 2000 м
[Cu hum Ci fib]
+24.8 +6.6 31 +25 +27 комфорт 1010.0 974.4
17 17.07 СЗ 4 50 км 1/1 2000 м
[Cu hum Ci fib]
+23.8 +7.5 35 +24 +25 комфорт 1010.1 974.4
18 17.07 С 2 50 км 1/1 2000 м
[Sc diur, vesp Ci fib]
+22.9 +7.9 38 +24 +24 комфорт 1010.3 974.5 +25.8
19 17.07 С 3 45 км 1/0
[Ac lent Ci fib]
+18.1 +8.9 55 +18 +18 1011.5 975.1
20 17.07 СВ 3 40 км 1/0
[Ci fib]
+16.6 +9.1 61 +16 +16 1012.2 975.6
21 17.07 нст 1 30 км 4/0
[Ci fib]
+14.4 +9.0 70 +15 +15 1012.8 975.9
22 17.07 СВ 3 30 км 4/0
[Ci fib]
+14.6 +8.3 66 +14 +14 1013.1 976.2
23 17.07 нст 1 30 км 4/0
[Ci fib]
+13.2 +8.5 73 +13 +13 1013.4 976.3
00 18.07 нст 1 30 км 4/0
[Ci fib]
+12.3 +7.8 74 +12 +12 1013.9 976.7
01 18.07 штиль 0 30 км 4/0
[Ac lent Ci fib]
+11.1 +8.3 83 +10 +10 1014.1 976.7
02 18.07 В 1 30 км 8/0
[Ac lent Ci fib]
+11.0 +8.0 82 +11 +11 1013.9 976.5
03 18.07 ЮЗ 1 25 км 9/1 1500 м
[Sc Ac As Ci fib]
+11.4 +8.4 82 +11 +11 1014.0 976.7
04 18.07 штиль 0 25 км 9/0
[Ac cast Ci sp]
+11.8 +8.6 81 +11 +12 1014.2 976.9
05 18.07 штиль 0 25 км 9/1 1500 м
[Sc Ac As Ci sp]
+12.8 +8.9 77 +12 +14 1014.2 977.0
06 18.07 штиль 0 30 км 6/1 1500 м
[Sc Ac As Ci sp]
+14.3 +9.3 72 +14 +18 1014.3 977.3 +10.9
07 18.07 штиль 0 30 км 6/1 1500 м
[Cu hum Ac As Ci sp]
+16.4 +8.6 60 +16 +24 1013.6 976.9
08 18.07 30 км 5/1 1200 м
[Cu hum Ac As Ci sp]
+20.4 +8.7 47 1013.2 977.0

 

Местоположение метеостанции Слиач (Словакия): широта 48.65 долгота 19.15 высота над уровнем моря 315 м.

В архиве по умолчанию представлена погода в Слиаче за последнюю неделю. Архивные данные за месяц целиком и за предыдущие месяцы, начиная с января 2011 года, Вы можете получить, выбрав интересующий диапазон дат из раскрывающегося списка и нажав кнопку "Ввод!".


*Определитесь, кто Вы:
робот инопланетянин человек

Внимание! Время в таблицах - всемирное. Для получения местного времени необходимо прибавить поправку, которая равна 1 ч.

Смотрите также архив погоды в соседних городах и на ближайших метеорологических станциях:

Погода в Жьяр-над-Гроном (Словакия) (23 км)
Погода в Прьевидзе (Словакия) (43 км)
Погода на Хопке (Словакия) (49 км)
Погода в Лученце (Словакия) (56 км)
Погода в Дудинце (Словакия) (57 км)
Погода в Сечене (Польша) (65 км)
Погода в Моховце (Словакия) (66 км)
Погода в Жилине (Словакия) (75 км)
Погода в Телгарте (Словакия) (79 км)
Погода в Нитре (Словакия) (86 км)

Пояснения к столбцам:

Ветер - указаны скорость ветра в м/с - средняя за 10 мин, порывы в срок и между сроками (в фигурных скобках) и направление, откуда дует ветер: С - северный, СВ - северо-восточный, В - восточный, ЮВ - юго-восточный, Ю - южный, ЮЗ - юго-западный, З - западный, СЗ - северо-западный.
Видимость - горизонтальная дальность видимости в метрах или километрах. При видимости от 1 до 10 км при отсутствии осадков обычно наблюдается дымка, при ухудшении видимости до 1 км и менее - туман. В сухую погоду видимость может ухудшаться дымом, пылью или мглою.
Явления - указаны атмосферные явления, наблюдавшиеся в срок или в последний час перед сроком; фигурными скобками обозначены явления, наблюдавшиеся между сроками (за 1-3 часа до срока); квадратными скобками обозначены град или гололедные отложения с указанием их диаметра в мм.
Облачность - указаны через наклонную черту общая и нижняя облачность в баллах и высота нижней границы облаков в метрах; квадратными скобками обозначены формы облаков: Ci - перистые, Cs - перисто-слоистые, Cc - перисто-кучевые, Ac - высококучевые, As - высокослоистые, Sc - слоисто-кучевые, Ns - слоисто-дождевые, Cu - кучевые, Cb - кучево-дождевые. Подробнее классификацию облаков см. в Атласе облаков (PDF).
T - Температура воздуха - температура, измеренная на высоте 2 м над землей.
Td - Температура точки росы - температура, при понижении до которой содержащийся в воздухе водяной пар достигнет насыщения.
f - Относительная влажность воздуха - влажноcть воздуха, измеренная на высоте 2 м над землей.
Te - Эффективная температура - температура, которую ощущает одетый по сезону человек в тени. Характеристика душности погоды. При расчете учитывается влияние влажности воздуха и скорости ветра на теплоощущения человека.
Tes - Эффективная температура на солнце - температура, которую ощущает человек, с поправкой на солнечный нагрев. Характеристика знойности погоды. Зависит от высоты солнца над горизонтом, облачности и скорости ветра. Ночью, в пасмурную погоду, а также при ветре 12 м/с и более поправка равна нулю.
P - Атмосферное давление - приведенное к уровню моря атмосферное давление.
Po - Атмосферное давление - измеренное на уровне метеостанции атмосферное давление.
Tmin - Минимальная температура - минимум температуры воздуха на высоте 2 м над землей.
Tmax - Максимальная температура - максимум температуры воздуха на высоте 2 м над землей.
R - Количество осадков - Количество выпавших осадков за период времени, мм. При наведении курсора мыши на число - период времени, за который выпало указанное количество осадков.
R24 - Количество осадков - Количество выпавших осадков за 24 часа, мм.
S - Снежный покров - Высота снежного покрова, см. При наведении курсора мыши на число - состояние снежного покрова и степень покрытия местности в баллах.